Location: Upchurch
(51.3667°N, 0.6500°E)
Time: 10:40:25
(UTC+00:00)

Daily predictions for brighter satellites

Satellite Brightness Start Highest point End
(mag) Time Altitude Azimuth Time Altitude Azimuth Time Altitude Azimuth
ATLAS 3B R/B 3.6 20:10:54 10° NW 20:17:41 50° WSW 20:24:43 10° SSE
CZ-4C R/B 4.4 20:12:42 10° WNW 20:17:46 29° N 20:23:44 10° NE
Cosmos 2360 Rocket 2.9 20:12:29 10° NNW 20:17:51 42° NE 20:23:11 10° ESE
ATLAS 2AS CENTAUR R/B 3.5 20:13:44 10° SW 20:21:38 70° NW 20:29:16 10° NE
Resurs 1-3 4.2 20:17:48 10° S 20:22:07 59° WSW 20:26:30 10° NNW
MetOp-B 4.3 20:20:21 10° SSE 20:25:40 67° ENE 20:31:01 10° N
Cosmos 2221 4.3 20:21:55 10° NNW 20:25:48 33° W 20:29:41 10° SSW
Cosmos 1092 Rocket 4.2 20:21:25 10° S 20:27:32 57° E 20:33:44 10° NNE
ISS -1.3 20:26:42 10° WSW 20:28:39 15° SW 20:30:36 10° S
NOSS 2-1 (C) 4.5 20:29:39 10° SSE 20:31:45 16° ESE 20:33:53 10° ENE
Cosmos 2151 3.0 20:28:01 10° S 20:32:15 75° E 20:36:33 10° NNE
ERS-2 2.0 20:29:49 10° NNE 20:33:29 79° ESE 20:37:08 10° SSW
Cosmos 2026 Rocket 4.2 20:30:26 10° SSE 20:36:33 54° E 20:42:36 10° NNE
Cosmos 1812 3.7 20:33:36 10° N 20:37:06 31° ENE 20:40:31 10° SE
Cosmos 2084 4.3 20:33:47 10° S 20:37:13 27° ESE 20:40:45 10° ENE
COSMOS 2455 4.5 20:35:28 10° SE 20:38:23 14° ESE 20:41:19 10° ENE
Cosmos 2333 Rocket 3.3 20:33:42 10° NNW 20:38:51 34° NE 20:43:58 10° ESE
Cosmos 158 Rocket 4.0 20:33:41 10° SSW 20:38:53 83° ESE 20:44:15 10° NNE
Cosmos 1980 Rocket 4.0 20:34:21 10° NW 20:38:59 27° WSW 20:43:37 10° SSW
GP-B 3.5 20:34:48 10° NNE 20:39:06 46° E 20:43:22 10° SSE
NOSS 2-1 (D) 4.2 20:37:03 10° SSE 20:39:28 19° ESE 20:41:54 10° ENE
BREEZE-M DEB (TANK) 4.3 20:38:19 10° W 20:41:27 38° SSW 20:49:45 10° SE
Cosmos 923 Rocket 4.1 20:37:30 10° S 20:42:43 58° ESE 20:47:58 10° NNE
SPOT 1/Viking Rocket 3.6 20:39:23 10° SSE 20:44:36 82° ENE 20:49:52 10° NNW
Nadezhda 4 Rocket 4.3 20:38:38 10° SSW 20:44:49 73° WNW 20:51:06 10° N
ERS-1 Rocket 3.6 20:40:29 10° SE 20:45:12 42° ENE 20:49:56 10° N
GEOS 3 Rocket 4.0 20:41:46 10° NE 20:46:59 69° NW 20:52:06 10° WSW
SL-27 R/B 3.9 20:44:41 10° SSE 20:47:17 20° E 20:50:01 10° NE
USA 245 3.5 20:42:40 10° SSE 20:47:19 69° ENE 20:51:01 10° N
USA 276 4.2 20:48:47 10° WSW 20:50:57 17° SSW 20:53:05 10° S
Cosmos 2237 Rocket 4.3 20:47:10 10° NNW 20:50:59 18° NNE 20:54:48 10° ENE
Cosmos 2056 Rocket 3.7 20:46:02 10° NNW 20:51:25 67° ENE 20:56:16 12° SE
Cosmos 2322 Rocket 2.3 20:46:43 10° NNW 20:52:23 81° WSW 20:57:55 10° SSE
Okean 3 Rocket 4.0 20:48:51 10° SSE 20:53:07 45° E 20:57:26 10° NNE
CARTOSAT-1 3.6 20:59:31 11° SSE 21:03:37 78° ENE 21:07:57 10° NNW
Cosmos 1428 Rocket 4.4 20:57:58 10° S 21:04:05 83° E 21:10:14 10° NNE
Gblst 52 Del rocket 4.4 20:58:23 10° W 21:04:15 88° SSW 21:10:59 10° ESE
USA 234 3.9 20:59:39 10° E 21:06:02 56° N 21:12:25 10° WNW
Spot 2 Rocket 3.5 21:03:04 11° SSE 21:08:03 86° ENE 21:13:12 10° NNW
Cosmos 2219 Rocket 2.9 21:04:29 10° NNW 21:09:50 43° NE 21:14:26 14° ESE
Cosmos 1371 Rocket 4.2 21:07:51 10° NNW 21:13:15 79° WSW 21:17:55 14° SSE
Resurs 01 Rocket 3.2 21:11:00 10° SSW 21:15:00 32° W 21:19:02 10° NNW
Cosmos 1680 Rocket 3.5 21:11:23 10° SSW 21:16:40 81° ESE 21:21:56 10° NNE
Cosmos 2112 Rocket 4.0 21:11:54 10° SSW 21:17:10 72° ESE 21:22:26 10° NNE
Cosmos 1515 Rocket 3.8 21:13:06 10° N 21:17:29 55° ENE 21:20:37 18° SSE
Cosmos 1151 Rocket 3.3 21:13:16 10° NNW 21:17:37 69° W 21:21:47 11° S
Cosmos 1553 Rocket 3.9 21:14:44 10° N 21:20:52 86° E 21:26:23 13° S
Terra 2.0 21:19:00 17° SSE 21:22:35 61° ENE 21:27:18 10° N
SL-16 R/B 3.2 21:17:36 10° NW 21:22:52 40° WSW 21:28:07 10° S
CZ-2C R/B 3.8 21:22:02 10° NNE 21:26:34 77° WNW 21:31:00 10° SSW
ATLAS 5 CENTAUR R/B 2.8 21:22:37 10° NW 21:27:42 52° NE 21:33:05 13° ESE
Cosmos 2333 4.2 21:23:35 10° NNW 21:29:13 74° ENE 21:33:17 19° SE
Cosmos 1809 Rocket 4.4 21:24:48 10° S 21:30:58 87° E 21:37:08 10° NNE
Cosmos 1328 Rocket 3.9 21:27:00 10° NNW 21:31:25 66° W 21:35:09 14° S
Cosmos 2228 Rocket 4.0 21:28:46 10° N 21:32:50 35° ENE 21:35:17 20° SE
Cosmos 1766 Rocket 3.7 21:28:47 10° SSW 21:33:10 74° WNW 21:37:33 10° N
NOSS 2-1 (E) 2.8 21:34:13 10° SSW 21:37:26 59° SE 21:40:53 10° NE
COSMOS 2428 3.1 21:31:53 10° NNW 21:37:30 54° NE 21:41:31 19° SE
SPOT 5 2.8 21:36:48 18° S 21:40:01 70° WSW 21:44:31 10° NNW
ARIANE 5 R/B 3.1 21:36:31 15° S 21:40:09 58° W 21:44:33 10° NNW
NOSS 3-1 (C) 4.1 21:35:40 10° NW 21:42:58 82° SW 21:49:24 20° SE
Cosmos 1862 3.2 21:39:48 15° S 21:43:03 89° E 21:47:03 10° N
Cosmos 292 Rocket 3.8 21:39:19 10° NNW 21:44:05 75° WSW 21:47:10 22° SSE
Meteor 2-6 Rocket 4.5 21:42:21 10° NNW 21:47:41 63° W 21:52:01 16° S
S3M 4.1 21:46:33 10° N 21:52:59 83° W 21:57:51 18° S
Meteor 2-21 Rocket 4.4 21:50:10 12° S 21:55:53 87° E 22:02:05 10° NNE
USA 229 DEB 3.9 21:51:41 10° NW 21:58:57 87° NE 22:04:27 21° SE
USA 229 3.9 21:51:47 10° NW 21:59:03 86° NE 22:04:33 21° SE
Cosmos 1655 Rocket 4.0 21:54:13 16° S 21:59:26 78° E 22:05:51 10° NNE
COSMOS 2487 2.9 22:00:10 36° SE 22:00:37 37° ESE 22:03:47 10° NE
ALOS 2 4.4 21:59:22 14° E 22:01:43 21° ENE 22:04:59 10° NNE
Cosmos 2360 Rocket 3.0 21:56:36 10° NW 22:01:54 43° WSW 22:05:41 18° S
Cosmos 972 Rocket 4.3 21:59:17 24° SSE 22:02:07 48° ESE 22:06:52 10° NNE
Cosmos 1805 Rocket 4.2 22:02:11 29° SE 22:03:50 40° E 22:07:59 10° NNE
Cosmos 1174 4.4 22:03:08 10° WNW 22:05:47 28° WSW 22:06:29 25° SW
Cosmos 2084 Rocket 4.1 22:02:37 10° NW 22:06:41 49° NE 22:09:18 21° ESE
CZ-4C R/B 4.2 22:02:18 10° NW 22:08:07 34° NNE 22:14:59 10° E
USA 267 4.0 22:06:59 10° ENE 22:12:37 30° SE 22:14:47 25° SSE
Cosmos 1980 4.5 22:08:23 10° NNW 22:13:50 44° NE 22:17:31 20° ESE
Cosmos 1500 Rocket 3.5 22:11:54 26° S 22:14:22 86° E 22:18:51 10° NNE
NOSS 0 Rocket 4.2 22:08:48 10° NNW 22:15:01 64° NE 22:18:54 24° SE
Cosmos 2084 4.1 22:12:27 10° WSW 22:16:28 54° NW 22:20:38 10° NE
NOSS 3-1 (A) 4.1 22:12:07 10° NW 22:19:27 80° SW 22:25:00 24° SE
NOSS 2-1 (C) 3.8 22:18:35 10° WSW 22:21:46 49° NW 22:25:14 10° NE
SL-27 R/B 3.9 22:18:44 10° SW 22:22:07 38° WNW 22:25:32 10° N
Meteor 1-27 Rocket 3.9 22:16:43 10° NNW 22:22:21 70° W 22:25:47 25° S
Cosmos 1833 4.4 22:17:06 10° SW 22:22:53 76° WNW 22:28:42 10° NNE
COSMOS 2455 2.8 22:17:53 13° SSW 22:23:14 68° ESE 22:29:14 10° NE
Cosmos 2333 Rocket 2.5 22:17:53 10° NW 22:23:26 57° WSW 22:26:23 27° S
Cosmos 1452 Rocket 3.7 22:18:25 10° NNW 22:23:39 66° WSW 22:26:16 29° S
ERS-1 Rocket 4.3 22:20:25 14° SSW 22:24:06 32° W 22:28:38 10° NNW
Lacrosse 5 3.5 22:25:50 18° ESE 22:25:50 18° ESE 22:28:03 10° E
H-2A R/B 3.4 22:20:47 10° NNE 22:25:01 89° ESE 22:27:05 30° SSW
Meteor 1-20 Rocket 4.5 22:23:03 29° SSE 22:25:41 54° E 22:31:16 10° NNE
COBE Rocket 3.8 22:26:51 34° SSE 22:28:49 68° ENE 22:33:32 10° N
NOSS 2-1 (D) 4.1 22:26:25 10° WSW 22:29:33 43° NW 22:33:00 10° NE
BREEZE-M R/B 3.9 22:26:57 10° SW 22:31:56 23° ESE 22:34:05 10° E
Cosmos 2322 4.1 22:24:58 10° NW 22:30:32 53° WSW 22:33:25 27° S
Cosmos 2297 Rocket 3.5 22:32:08 21° ESE 22:33:01 22° E 22:37:12 10° NE
Cosmos 1500 4.3 22:34:31 28° E 22:34:52 28° E 22:38:12 10° NNE
Cosmos 1743 Rocket 3.9 22:32:53 24° SSW 22:35:30 63° WNW 22:39:55 10° N
Cosmos 2322 Rocket 4.4 22:32:24 10° WNW 22:35:31 15° W 22:38:39 10° SW
Sich 1 3.0 22:34:10 40° SSE 22:35:34 64° E 22:39:53 10° NNE
Cosmos 2237 Rocket 2.6 22:30:42 10° NNW 22:36:19 57° NE 22:39:29 26° ESE
BREEZE-M DEB (TANK) 3.1 22:38:42 10° W 22:42:20 30° SW 22:42:20 30° SW
Cosmos 1633 Rocket 3.7 22:44:03 35° ESE 22:44:57 40° E 22:49:02 10° NNE
Cosmos 2227 Rocket 3.6 22:44:30 20° ESE 22:45:19 20° E 22:49:21 10° NE
Cosmos 1110 Rocket 4.0 22:40:37 10° NNW 22:45:58 78° WSW 22:48:10 36° SSE
Cosmos 1331 Rocket 3.9 22:43:10 10° NNW 22:48:27 82° WSW 22:50:32 37° SSE
USA 234 3.3 22:42:59 14° ESE 22:48:48 83° NNE 22:55:23 10° WNW
Cosmos 1666 Rocket 3.8 22:50:45 43° SE 22:51:52 56° E 22:56:15 10° NNE
Cosmos 2219 Rocket 2.9 22:48:35 10° NW 22:53:48 41° WSW 22:56:08 27° SSW
NOSS 2-2 (E) 4.3 22:51:51 10° NW 22:56:59 87° NE 23:00:49 28° SE
Terra 3.8 22:57:53 13° SW 23:00:44 21° W 23:04:18 10° NW
Cosmos 1515 4.1 23:00:32 10° NNW 23:04:14 53° W 23:04:57 45° SW
Spot 4 3.9 23:03:05 41° S 23:04:46 74° WSW 23:09:38 10° NNW
SL-16 R/B 3.2 23:00:25 10° NNW 23:05:45 40° NE 23:09:38 17° ESE
Meteor 1-18 Rocket 4.2 23:02:26 10° NNW 23:08:20 87° W 23:10:44 37° S
Meteor 1-25 Rocket 4.2 23:06:07 31° SSW 23:08:54 80° WNW 23:14:30 10° N
ATLAS 5 CENTAUR R/B 2.8 23:07:11 10° NW 23:12:28 47° SW 23:14:35 34° S
Cosmos 1862 Rocket 3.4 23:08:42 10° N 23:13:04 86° ENE 23:14:06 53° SSE
SL-08 R/B 4.5 23:11:22 35° S 23:14:04 72° E 23:20:12 10° NNE
Okean 1 3.5 23:10:20 10° NNW 23:14:18 60° W 23:15:05 49° SW
Cosmos 494 Rocket 4.0 23:12:47 30° SSW 23:15:23 77° WNW 23:20:33 10° NNE
Cosmos 1602 4.0 23:14:27 45° SW 23:15:23 61° WNW 23:19:13 10° N
COSMOS 2428 3.8 23:16:33 10° NW 23:21:32 32° WSW 23:23:31 25° SW
SL-08 ROCKET BODY 4.4 23:19:01 35° S 23:21:48 89° E 23:28:01 10° N
Cosmos 1707 Rocket 4.2 23:17:43 10° NNW 23:21:54 46° W 23:23:04 36° SW
NOSS 2-2 (C) 4.2 23:16:53 10° NW 23:21:58 81° SW 23:25:12 32° SE
Meteor 2-4 Rocket 3.8 23:16:38 10° NNW 23:22:37 85° ENE 23:24:59 39° SSE
Cosmos 1666 2.9 23:26:25 53° ESE 23:26:40 54° E 23:30:27 10° NNE
Cosmos 1703 Rocket 4.2 23:24:17 10° N 23:28:31 47° ENE 23:29:38 38° ESE
Cosmos 1992 Rocket 4.3 23:29:17 10° NNW 23:34:29 61° ENE 23:36:41 34° SE
TSX-5 3.9 23:35:45 58° SSW 23:36:32 81° ESE 23:41:32 10° NE
ALOS 2 2.8 23:36:46 47° SSW 23:37:41 58° W 23:42:03 10° NNW
Meteor 1-5 Rocket 4.3 23:35:45 40° SSE 23:37:51 69° E 23:43:44 10° NNE
Cosmos 1745 Rocket 4.0 23:39:16 38° S 23:41:54 81° E 23:48:14 10° NNE
Cosmos 2219 3.4 23:42:23 41° SSE 23:44:05 57° ESE 23:49:45 10° NE
Cosmos 1302 Rocket 4.2 23:39:03 10° NNW 23:44:10 56° WSW 23:45:34 42° SSW
Cosmos 2084 Rocket 4.4 23:42:16 10° WNW 23:45:47 32° WSW 23:45:47 32° WSW
Cosmos 1269 Rocket 3.9 23:47:42 44° SSW 23:49:25 81° ESE 23:54:45 10° NNE
Meteor 1-13 Rocket 4.3 23:44:24 10° N 23:50:12 72° ENE 23:52:26 38° SSE
Meteor 1-14 Rocket 4.3 23:51:46 38° SSW 23:54:01 75° WNW 23:59:43 10° N
Okean 1-7 2.9 23:51:17 10° N 23:55:34 83° E 23:56:20 60° SSE
